Location: Bilsen
(53.7722°N, 9.8765°E)
Time: 11:34:05
(UTC+00:00)

NOSS 3-4 (A) - Pass Details

Date: 18 February 2020
Orbit: 897 x 1315 km, 63.4° (Epoch: 05 April)

Event Time Altitude Azimuth Distance (km) Brightness Sun altitude
Exits shadow 04:42:08 14° 312° (NW) 2,554 5.3 -17.2°
Maximum altitude 04:47:49 50° 25° (NNE) 1,363 4.4 -16.4°
Drops below altitude 10° 04:54:55 10° 100° (E) 3,084 7.4 -15.3°
Sets 04:57:54 0° 105° (ESE) 4,106 8.3 -14.9°
